Location: Unspecified
(0.0000°N, 0.0000°E)
Time: 19:35:33
(UTC+02:00)

USA 116 - Visible Passes

Search period start: 24 September 2017 00:00
Search period end: 04 October 2017 00:00
Orbit: 405 x 834 km, 97.9° (Epoch: 18 November)

Date Brightness Start Highest point End Pass type
(mag) Time Alt. Az. Time Alt. Az. Time Alt. Az.
24 Sep 5.8 06:45:21 10° SE 06:48:42 28° E 06:51:42 10° NNE visible
25 Sep 4.7 06:58:27 10° SSE 07:02:09 46° E 07:05:26 10° N visible
26 Sep 3.6 07:11:46 10° SSE 07:15:34 82° ENE 07:18:56 10° N visible
27 Sep 3.5 07:25:17 10° S 07:28:58 56° WSW 07:32:15 10° NNW visible
30 Sep 6.6 06:31:32 10° ESE 06:33:23 14° E 06:35:10 10° NE visible
30 Sep 7.3 20:11:29 10° NW 20:14:41 18° W 20:18:03 10° WSW visible
01 Oct 6.0 06:44:03 10° SE 06:46:49 23° E 06:49:25 10° NNE visible
01 Oct 7.8 20:26:25 10° WNW 20:28:09 12° W 20:29:56 10° W visible
02 Oct 4.8 06:57:02 10° SSE 07:00:16 38° E 07:03:14 10° N visible
03 Oct 3.5 07:10:16 10° SSE 07:13:39 72° ENE 07:16:47 10° N visible
